Wind_Speed
17 20 17 16 16 16 17 16 18 18 20 20 21 20 20 21 22 23 24 25 27 27 28 27 27 27 28 27 26 26 26 27 27 27 27 27 27 27 27 28 30 29 27
24 21 19 17 16 16 16 16 17 19 21 20 21 21 20 21 23 23 25 25 25 25 26 26 26 25 25 24 25 26 26 27 28 28 29 28 27 27 27 27 29 27 27
25 22 20 18 18 17 17 19 19 19 20 21 19 20 20 21 21 22 24 24 24 24 26 26 26 25 24 23 25 23 24 25 27 29 29 28 27 26 26 27 27 25 26
25 23 21 19 19 19 22 21 20 18 19 18 20 19 19 20 20 21 23 23 23 24 25 24 23 23 23 23 23 23 24 25 27 28 29 26 26 25 25 25 24 24 24
24 22 22 21 21 22 23 21 20 20 22 22 21 19 19 21 20 21 22 23 23 24 24 22 22 22 23 23 23 23 25 26 27 27 27 26 24 23 24 23 22 22 22
24 22 22 22 24 25 24 22 22 21 24 24 22 21 18 20 20 20 21 22 22 23 23 23 23 22 23 23 22 24 25 26 27 27 27 24 23 22 22 21 21 21 21
24 24 24 24 25 25 25 23 22 24 24 26 25 19 16 17 19 20 22 21 21 21 21 22 21 21 22 22 21 24 24 25 26 26 25 23 22 20 21 21 21 20 21
26 25 24 24 26 26 23 21 17 17 18 26 30 21 17 18 19 20 21 22 20 21 20 21 20 20 20 21 21 23 23 24 25 25 24 22 21 20 19 20 20 20 19
26 27 24 23 23 21 18 17 17 19 22 23 22 22 19 18 19 19 21 21 20 21 20 19 19 19 20 21 21 22 22 23 24 24 23 21 19 19 19 18 18 18 19
26 25 23 23 23 20 21 22 27 26 25 24 23 23 20 19 19 20 21 20 20 20 20 18 18 19 20 20 20 21 22 23 24 23 21 19 18 18 17 18 18 17 18
28 26 26 26 26 26 26 24 24 25 24 22 20 21 20 19 19 19 20 21 20 18 18 17 18 18 19 20 19 20 21 22 22 20 19 17 18 17 17 16 17 18 18
28 27 28 28 27 26 25 24 24 23 22 20 20 19 20 19 19 20 20 20 20 17 18 18 18 17 17 18 18 19 20 21 20 18 17 16 16 16 16 16 17 17 18
30 29 28 27 26 26 25 24 23 22 21 20 20 20 19 19 18 19 18 18 17 14 16 17 17 15 15 16 16 17 18 18 18 18 16 15 15 15 15 16 17 17 18
30 30 29 27 26 25 24 21 20 21 20 19 19 18 19 19 18 17 16 15 13 12 14 15 15 14 14 14 15 16 16 17 17 17 15 15 15 15 15 15 16 17 17
31 30 29 27 27 24 22 18 20 21 17 17 17 17 16 17 17 16 14 12 11 11 11 13 14 14 14 13 13 13 14 14 15 15 15 15 15 14 14 15 16 16 16
32 30 29 26 23 23 18 18 22 17 16 15 16 15 14 14 14 13 11 9 9 9 11 10 12 14 14 12 13 12 13 13 13 12 12 13 14 14 14 14 15 15 15
33 31 28 25 23 19 18 20 20 16 16 14 15 14 13 11 10 9 9 9 9 10 10 11 12 13 13 12 12 12 12 12 11 11 11 10 12 14 13 13 13 14 15
33 31 27 25 22 20 19 21 18 14 14 13 15 13 11 9 8 8 8 9 9 10 10 11 12 14 13 11 12 12 11 11 10 9 8 8 8 9 12 11 12 13 14
34 32 28 25 22 21 20 21 17 15 14 13 14 11 9 10 9 9 9 9 9 9 10 10 12 12 13 13 12 12 11 9 7 6 6 6 6 6 6 7 7 8 10
33 31 30 27 25 23 21 19 16 16 14 14 13 12 11 12 11 11 10 8 8 9 10 11 11 11 12 13 13 11 9 7 6 5 5 5 5 4 4 4 5 6 8
33 31 30 28 28 26 23 21 19 19 17 16 15 14 13 13 12 10 9 8 9 10 10 11 12 12 13 14 15 8 6 6 6 7 7 6 5 4 3 2 2 3 6
32 33 32 30 29 27 27 23 20 21 19 18 16 15 15 14 14 12 10 9 11 11 11 12 13 15 11 18 6 6 1 4 9 9 9 8 7 6 4 3 1 2 5
27 32 35 33 29 27 27 27 20 18 17 19 16 17 17 17 16 14 13 11 11 11 12 13 14 15 14 20 12 5 2 4 3 9 12 11 10 9 7 5 4 3 5
29 30 34 36 32 29 26 26 25 21 17 20 18 19 18 18 18 17 16 15 12 11 13 14 15 16 16 23 15 13 3 2 3 1 7 12 12 12 11 10 8 6 6
28 27 29 32 28 31 29 26 26 23 22 19 19 19 20 20 20 19 18 18 16 13 13 15 16 17 18 20 22 12 17 8 6 3 3 6 14 16 15 14 12 10 8
26 28 28 31 28 31 31 32 31 28 26 23 22 22 22 24 23 22 21 21 19 16 15 16 17 18 19 20 21 23 16 7 12 8 4 6 9 12 18 18 16 13 11
Wind_Direction
159 158 153 149 146 145 143 141 139 134 129 125 123 120 115 110 110 109 107 106 102 100 97 94 93 92 92 89 86 85 84 83 86 86 80 79 78 77 77 77 76 75 74
153 155 151 150 149 149 150 144 139 137 132 128 122 115 113 111 110 109 108 104 104 100 100 98 96 93 91 89 88 86 85 85 87 86 85 83 80 79 78 78 77 76 76
151 153 153 150 146 147 148 139 139 139 133 126 119 113 112 110 110 110 110 104 102 102 100 98 96 93 92 90 89 87 89 91 93 91 86 81 80 81 79 80 78 75 74
152 152 154 151 142 148 143 140 136 130 119 115 113 113 114 111 112 112 110 106 104 105 102 100 98 94 91 91 92 90 95 94 93 89 86 85 83 80 79 77 76 75 73
151 154 155 149 144 144 137 136 132 130 124 113 107 103 107 108 108 108 109 108 111 108 106 102 97 93 93 91 91 93 95 94 92 87 84 83 84 82 81 80 78 77 74
150 154 152 149 144 137 135 135 131 133 127 119 110 103 102 102 103 108 113 115 111 108 110 104 99 95 92 93 92 96 99 97 95 91 88 85 85 83 82 80 78 76 74
150 150 150 149 140 134 132 128 127 129 125 124 117 98 105 105 108 114 115 114 111 111 112 106 100 94 93 95 97 102 102 100 97 94 90 88 87 84 84 82 79 75 72
148 145 144 144 139 140 140 139 135 132 130 128 122 130 122 121 116 116 115 115 111 110 119 112 103 94 94 97 104 105 105 103 100 96 92 89 87 84 83 82 80 77 75
147 144 144 145 142 145 146 156 158 146 139 129 127 128 129 126 123 119 121 117 111 114 120 113 106 100 98 104 109 109 107 104 100 96 94 91 91 90 86 82 79 76 73
147 145 146 146 145 142 139 146 142 141 141 139 133 131 133 130 127 125 121 121 121 119 121 120 113 105 100 105 111 112 111 106 101 97 95 94 94 89 86 82 80 75 71
148 146 146 143 144 142 141 146 144 142 139 136 134 137 140 130 126 124 123 124 125 119 121 123 119 111 107 108 111 114 111 107 102 97 98 98 93 89 86 83 79 76 73
141 144 146 144 142 141 141 142 141 141 141 141 143 143 139 132 130 126 125 125 125 114 115 127 126 115 107 110 116 117 113 109 103 97 101 99 94 89 89 83 80 76 73
147 148 149 148 146 145 143 144 143 145 144 145 144 144 142 140 137 134 132 129 127 120 117 127 127 121 112 114 119 119 119 117 112 112 105 99 94 92 87 83 78 74 69
152 153 154 152 150 147 147 147 150 150 146 144 144 146 147 143 141 138 137 131 127 127 129 133 136 130 124 122 122 127 129 122 121 116 113 102 97 94 88 83 77 71 67
157 158 159 159 156 153 151 153 151 146 143 145 148 149 149 144 144 143 140 135 135 135 136 136 142 143 137 130 130 135 130 129 131 129 120 114 105 96 89 82 76 70 64
162 163 163 165 161 158 168 162 154 148 147 148 150 151 152 149 146 148 148 142 141 138 141 137 140 145 142 139 132 133 135 136 135 131 128 124 114 100 90 83 78 71 64
168 166 169 169 165 169 171 166 162 162 158 155 156 157 158 156 158 163 159 149 148 148 145 145 140 147 148 140 130 135 136 136 134 131 127 126 123 113 97 87 79 71 64
170 171 171 169 170 174 178 175 169 169 166 168 169 171 179 189 181 171 162 157 152 150 149 146 145 149 150 149 138 138 140 140 135 130 126 129 134 125 112 100 83 71 62
174 175 176 178 181 180 179 177 183 180 178 178 180 183 188 186 188 185 172 165 165 166 167 169 162 164 160 153 145 141 141 145 142 139 140 139 136 126 108 94 83 66 58
181 183 184 184 186 187 187 186 188 189 187 189 193 198 196 194 189 186 188 196 195 188 179 174 174 168 162 160 149 147 153 166 177 183 176 166 159 144 116 92 70 57 43
187 187 190 190 189 195 194 196 199 197 195 196 196 195 197 196 198 201 203 201 196 193 187 184 174 170 158 163 145 138 158 190 200 200 200 198 191 183 163 128 66 35 26
188 192 195 197 195 199 201 202 201 203 204 203 201 203 207 206 206 211 210 210 202 200 198 197 194 174 173 171 156 135 179 236 224 219 215 212 209 206 211 215 253 351 7
189 191 197 198 200 203 210 208 203 200 206 205 214 213 214 214 214 218 216 212 206 210 214 209 206 204 193 190 182 167 103 231 190 220 224 222 222 222 226 231 245 294 334
192 193 196 199 204 207 213 209 204 207 204 214 222 225 219 216 217 222 220 218 218 224 221 222 218 216 212 200 210 224 216 167 179 289 227 225 228 230 233 235 241 260 290
194 190 197 203 215 207 218 215 212 218 225 227 230 230 224 223 223 225 225 223 224 232 236 228 223 222 223 220 215 215 228 229 223 176 227 218 226 229 232 236 241 250 268
191 196 197 206 214 215 216 220 221 226 227 228 233 229 232 229 228 227 229 227 233 236 240 237 237 236 236 236 235 235 235 216 217 205 198 223 225 230 230 232 235 242 253
Height
799 803 806 809 811 814 816 817 820 821 823 823 824 827 827 828 829 830 832 833 835 836 836 838 839 840 841 843 844 845 845 845 846 846 846 848 848 849 849 849 849 849 850
797 803 807 810 813 815 818 819 823 823 824 826 826 828 830 830 831 832 834 835 837 839 840 841 843 844 845 846 847 848 849 849 850 850 851 852 853 852 853 853 851 854 854
799 803 807 810 814 817 819 821 824 824 826 828 829 832 833 833 835 836 837 839 841 842 842 844 846 847 848 849 849 851 852 853 853 853 855 855 855 856 856 856 857 858 858
800 804 808 812 815 817 820 824 826 828 830 832 832 834 835 837 838 840 841 842 844 845 845 848 849 850 851 852 853 854 855 855 856 857 856 858 858 860 860 861 860 862 862
802 806 810 813 816 819 822 827 828 830 831 833 834 837 839 840 841 842 843 845 847 847 849 851 852 852 853 853 855 856 857 857 858 859 860 861 863 864 863 865 866 866 866
804 809 813 815 818 821 824 829 830 833 833 834 838 839 841 842 845 847 847 848 849 850 852 854 855 855 855 855 857 858 859 861 862 863 864 866 866 867 868 869 870 871 870
806 810 814 818 821 823 827 831 833 835 836 837 838 841 844 846 849 850 851 851 852 854 855 856 858 858 857 858 861 862 864 865 865 866 868 869 871 872 872 873 873 873 872
808 812 816 821 822 826 829 833 837 838 840 841 839 842 847 850 852 853 854 855 856 857 859 860 860 861 861 862 865 866 868 869 870 871 872 874 874 875 876 876 876 877 878
811 814 819 822 825 829 832 835 837 839 841 843 844 846 851 854 855 856 856 858 859 860 863 863 864 865 866 867 869 870 872 872 873 874 876 877 879 880 880 881 880 881 880
814 816 820 824 827 831 833 837 839 842 844 846 848 850 855 856 856 858 858 861 862 864 865 866 867 869 869 870 873 874 876 877 877 878 880 881 883 883 883 883 883 882 882
815 818 821 825 829 832 836 840 842 844 846 848 850 853 856 857 859 861 862 864 865 867 868 869 870 872 872 873 876 877 878 879 880 881 883 884 885 886 886 887 886 885 885
817 822 824 827 831 833 837 840 843 846 848 851 853 856 857 859 862 863 865 867 868 869 870 871 873 874 875 876 879 880 881 882 883 884 886 887 888 888 888 889 888 888 887
818 822 827 829 832 835 839 842 845 849 851 854 856 858 859 861 864 866 868 870 871 871 872 874 876 877 878 879 881 883 884 885 886 887 889 890 890 891 891 890 889 889 888
819 824 828 832 834 838 841 844 847 850 853 855 857 860 862 863 866 867 870 872 873 874 875 877 878 879 881 883 884 886 888 887 888 890 891 892 892 893 893 892 891 890 890
820 825 829 833 836 839 843 845 848 851 854 856 859 862 864 865 867 869 871 873 875 877 878 879 880 881 883 885 887 888 888 890 891 892 893 893 895 895 894 894 893 893 892
821 825 829 834 837 840 844 847 849 852 854 858 860 863 866 867 869 871 873 874 876 878 879 880 881 883 885 887 888 889 890 892 893 894 895 895 896 896 896 896 895 895 894
820 825 829 833 838 840 845 848 850 853 855 858 861 864 867 868 870 872 874 875 877 879 880 882 883 885 887 889 889 891 892 894 895 895 896 896 897 897 897 898 897 896 895
821 826 831 833 838 841 846 849 851 854 856 859 862 865 867 869 871 873 875 876 878 880 881 883 884 887 889 891 891 893 894 895 897 897 897 898 898 898 897 898 897 896 896
821 826 830 833 838 841 846 848 851 854 856 859 862 864 867 869 872 874 875 877 879 881 883 884 886 888 889 891 892 894 895 897 898 898 899 899 899 899 898 898 897 897 897
821 826 830 833 837 841 846 849 851 854 856 859 862 864 867 869 872 874 875 877 879 881 883 885 886 888 889 891 893 895 896 898 898 899 899 900 900 900 899 899 898 898 897
821 825 829 833 836 841 844 848 850 852 855 858 861 864 867 869 871 874 875 877 879 881 883 885 886 888 889 891 893 896 897 898 898 899 899 900 900 900 899 899 899 898 897
818 823 828 832 835 839 843 846 849 852 855 858 860 863 866 868 871 873 875 876 878 880 882 884 885 887 889 891 892 896 899 899 898 898 899 899 899 899 899 899 898 898 897
816 819 823 829 834 837 841 845 848 850 853 856 859 862 864 867 869 871 874 876 877 879 881 882 884 886 887 890 892 893 899 898 896 896 897 898 898 898 898 898 898 897 896
811 816 819 825 830 834 839 842 844 847 851 854 857 860 863 865 867 870 872 874 876 877 879 881 883 884 886 887 890 891 892 893 895 896 896 896 897 897 896 896 896 895 895
808 812 817 822 826 831 836 839 843 845 849 852 855 858 860 863 865 868 870 872 874 876 877 879 880 882 883 885 886 888 890 891 891 892 894 893 893 893 893 893 894 894 893
805 810 814 820 823 827 831 835 838 842 845 848 851 854 857 859 862 865 867 869 871 872 874 876 877 879 880 882 883 884 885 886 886 888 890 889 889 889 889 890 890 891 891